User: anonymous   Login
Location: Dompnac
(44.5644°N, 4.1026°E)
Time: 03:34:21
(UTC+00:00)
Language:

Cosmos 2151 Rocket - Orbit

View from above orbital plane
View from above orbital plane
View from above satellite
View from above satellite

Ground track
Ground track

The orbit data is extracted from the following two-line orbital elements,

1 21423U 91042B   20339.38768821  .00000114  00000-0  11956-4 0  9990
2 21423  82.4953 218.0757 0018979  64.6738 295.6438 14.79807474589834
Epoch (UTC): 04 December 2020 09:18:16
Eccentricity: 0.0018979
inclination: 82.4953°
perigee height: 616 km
apogee height: 643 km
right ascension of ascending node: 218.0757°
argument of perigee: 64.6738°
revolutions per day: 14.79807474
mean anomaly at epoch: 295.6438°
orbit number at epoch: 58983

The dashed part of the orbit path shows where the satellite is in the earth's shadow,  

DLR